[[{"header":{"parameterUnit":"m.s-1","parameterCategory":1,"la1":30.2991,"la2":30.254,"lo1":-89.0895,"lo2":-89.0444,"dy":0.0017,"dx":0.0017,"nx":28,"ny":28,"refTime":"2024-08-27T03:00:00:Z","depth":0,"parameterNumber":2,"parameterNumberName":"U-component_of_WINDS"},"data":[0,0,0,0,0,0,0,0,0,0,0,0,0,0,0,0,0,0,0,0,0,0,0,0,0,0,0,0,0,0,0,0,0,0,0,0,0,0,0,0,0,0,0,0,0,0,0,0,0,0,0,0,0,0,0,0,0,0,-0.8779,-0.8779,0,-0.8714,-0.8713,-0.8713,-0.8637,-0.8636,-0.8635,-0.8634,-0.8566,-0.8566,-0.8565,0,0,0,0,0,0,0,0,0,0,0,0,0,-0.8841,-0.884,-0.8779,-0.8779,-0.8778,-0.8714,-0.8713,-0.8712,-0.8637,-0.8636,-0.8635,-0.8633,-0.8567,-0.8566,-0.8565,0,0,0,0,0,0,0,0,0,0,0,0,0,-0.8799,-0.884,-0.878,-0.8733,-0.8728,-0.8714,-0.8713,-0.8712,-0.8638,-0.8636,-0.8634,-0.8633,-0.8567,-0.8566,-0.8565,-0.8592,0,0,-0.8561,-0.8561,0,0,0,0,0,0,0,0,-0.8801,-0.8797,-0.874,-0.8736,-0.873,-0.8682,-0.871,-0.8672,-0.8638,-0.8672,-0.8634,-0.8632,-0.8606,-0.8602,-0.8593,-0.8589,-0.8586,-0.8561,-0.8561,-0.856,-0.856,0,0,0,0,0,0,0,-0.8804,-0.8799,-0.8754,-0.874,-0.8734,-0.8716,-0.8708,-0.8703,-0.8649,-0.8669,-0.8663,-0.8657,-0.8603,-0.8595,-0.8591,-0.8585,-0.8561,-0.856,-0.856,-0.8559,-0.8602,-0.8604,0,0,0,0,0,0,-0.8814,-0.8802,-0.8756,-0.8752,-0.8762,-0.8716,-0.8707,-0.8699,-0.8649,-0.864,-0.8658,-0.8653,-0.8597,-0.8593,-0.8589,-0.8618,-0.856,-0.8559,-0.8559,-0.8601,-0.8603,-0.8605,0,0,0,0,0,0,-0.8816,-0.8811,-0.8758,-0.8775,-0.8767,-0.8717,-0.8709,-0.8699,-0.869,-0.8641,-0.8631,-0.8659,-0.8596,-0.859,-0.8592,-0.8615,-0.8559,-0.8558,-0.8598,-0.8601,-0.8604,-0.8678,0,0,0,0,0,0,-0.8818,-0.8812,-0.8821,-0.8776,-0.8767,-0.8763,-0.871,-0.8699,-0.8688,-0.8682,-0.8639,-0.8631,-0.8594,-0.8594,-0.8591,-0.8612,-0.8557,-0.8596,-0.86,-0.8603,-0.8673,-0.8683,-0.8691,0,0,0,0,0,-0.882,-0.8844,-0.8822,-0.8817,-0.8777,-0.8764,-0.8759,-0.8716,-0.8691,-0.87,-0.8669,-0.8632,-0.8613,-0.8595,-0.8591,-0.8612,-0.8595,-0.8599,-0.8603,-0.8669,-0.8681,-0.8691,0,0,0,0,0,0,-0.8891,-0.8837,-0.8812,-0.8821,-0.8798,-0.8752,-0.8762,-0.873,-0.8713,-0.8707,-0.8655,-0.8646,-0.8655,-0.8634,-0.8615,-0.8637,-0.8599,-0.8602,-0.8651,-0.8661,-0.867,-0.8675,-0.8556,0,0,0,0,0,-0.8909,-0.8903,-0.8855,-0.8868,-0.8858,-0.8812,-0.8805,-0.8775,-0.8748,-0.8738,-0.8707,-0.8683,-0.8672,-0.8666,-0.8652,-0.867,-0.8661,-0.8683,-0.8692,-0.87,-0.8703,-0.8713,-0.8723,-0.8618,-0.8618,-0.8618,0,0,-0.8943,-0.8913,-0.8912,-0.8882,-0.886,-0.8856,-0.8804,-0.8801,-0.8798,-0.8737,-0.8738,-0.8715,-0.8685,-0.8696,-0.8699,-0.8678,-0.873,-0.8705,-0.8711,-0.871,-0.8718,-0.8728,-0.8737,-0.8621,-0.862,-0.862,0,0,-0.9004,-0.898,-0.8989,-0.8969,-0.8938,-0.8908,-0.891,-0.8869,-0.8852,-0.8852,-0.8807,-0.8803,-0.8784,-0.8765,-0.8754,-0.8812,-0.8777,-0.8809,-0.8855,-0.8865,-0.8874,-0.8881,-0.8903,-0.8911,-0.8813,-0.8813,-0.8813,0,-0.9051,-0.9042,-0.8998,-0.8998,-0.8987,-0.8934,-0.8944,-0.8926,-0.8892,-0.8886,-0.8864,-0.8842,-0.8817,-0.8824,-0.8839,-0.883,-0.8833,-0.8813,-0.8876,-0.8883,-0.8889,-0.8909,-0.8917,-0.8817,-0.8816,-0.8816,-0.8816,0,-0.9102,-0.9097,-0.9109,-0.9078,-0.9068,-0.9074,-0.9031,-0.9027,-0.8998,-0.8971,-0.8973,-0.8943,-0.8924,-0.8924,-0.8895,-0.8927,-0.8916,-0.8886,-0.8846,-0.8904,-0.8922,-0.8929,-0.8823,-0.8821,-0.882,-0.8819,0,0,-0.9204,-0.9151,-0.9156,-0.9142,-0.9105,-0.9101,-0.9105,-0.9087,-0.9085,-0.9064,-0.9067,-0.9054,-0.9027,-0.9014,-0.8983,-0.8993,-0.9042,-0.8961,-0.896,-0.8978,-0.9078,-0.9101,-0.911,-0.902,-0.9022,-0.9023,-0.9081,0,-0.9258,-0.9261,-0.9223,-0.9237,-0.9233,-0.9184,-0.9187,-0.9166,-0.9141,-0.9135,-0.9108,-0.91,-0.9064,-0.9056,-0.9063,-0.9035,-0.9062,-0.903,-0.9023,-0.9023,-0.9032,-0.9119,-0.9143,-0.9199,-0.9087,-0.9088,-0.9089,0,-0.9321,-0.9306,-0.932,-0.9284,-0.9281,-0.9285,-0.9267,-0.9261,-0.9237,-0.9218,-0.9206,-0.9171,-0.9174,-0.9137,-0.9141,-0.912,-0.9115,-0.9102,-0.9103,-0.91,-0.9059,-0.9119,-0.9215,-0.9224,-0.91,-0.9099,-0.9098,0,-0.9395,-0.9378,-0.9384,-0.9374,-0.9333,-0.9337,-0.932,-0.9294,-0.9287,-0.9271,-0.9266,-0.9252,-0.9243,-0.9233,-0.9197,-0.9173,-0.9205,-0.9165,-0.9191,-0.9192,-0.9199,-0.9199,-0.9296,-0.9196,-0.9196,-0.9196,-0.9196,0,-0.946,-0.9471,-0.9417,-0.9421,-0.9432,-0.9389,-0.9401,-0.938,-0.9358,-0.9357,-0.9314,-0.9315,-0.9267,-0.9263,-0.9234,-0.9243,-0.9239,-0.9225,-0.9218,-0.9229,-0.9231,-0.9225,-0.922,-0.9198,-0.9198,-0.9197,-0.9197,0,-0.9544,-0.9508,-0.9512,-0.9474,-0.9465,-0.9475,-0.9442,-0.9445,-0.9419,-0.942,-0.9417,-0.9377,-0.937,-0.9333,-0.9317,-0.9299,-0.9317,-0.9302,-0.9326,-0.9321,-0.9349,-0.9347,-0.9445,-0.9456,-0.935,-0.9351,-0.9352,0,-0.9587,-0.9594,-0.9558,-0.9555,-0.954,-0.9536,-0.9529,-0.9487,-0.9482,-0.9456,-0.9463,-0.9453,-0.9442,-0.9434,-0.9404,-0.9393,-0.9377,-0.9412,-0.9374,-0.9387,-0.9378,-0.9378,-0.9379,-0.942,-0.9421,-0.9422,-0.9423,0,-0.9669,-0.9652,-0.9643,-0.9629,-0.9622,-0.9609,-0.9593,-0.9594,-0.9548,-0.9544,-0.9537,-0.953,-0.9515,-0.9506,-0.949,-0.9474,-0.9442,-0.9436,-0.9441,-0.9453,-0.9467,-0.946,-0.9348,-0.9433,-0.9432,-0.9431,-0.9431,-0.943,-0.9734,-0.9739,-0.9715,-0.9707,-0.9691,-0.9679,-0.968,-0.9655,-0.9649,-0.9634,-0.961,-0.9607,-0.9585,-0.956,-0.9547,-0.9544,-0.9526,-0.9533,-0.9535,-0.9538,-0.9544,-0.9468,-0.9541,-0.9541,-0.9541,-0.954,-0.954,0,-0.9814,-0.9796,-0.979,-0.977,-0.9765,-0.9736,-0.9718,-0.9716,-0.9714,-0.9696,-0.9687,-0.9681,-0.9673,-0.9643,-0.9633,-0.9637,-0.9622,-0.9635,-0.9634,-0.9632,-0.9561,-0.9558,-0.9648,-0.9648,-0.9648,-0.9648,-0.9648,-0.9648,-0.9855,-0.9862,-0.9843,-0.9843,-0.9825,-0.9822,-0.9815,-0.9803,-0.9789,-0.9784,-0.9777,-0.9758,-0.9736,-0.9724,-0.9716,-0.9708,-0.9706,-0.9725,-0.9712,-0.9646,-0.9636,-0.9626,-0.9623,-0.9725,-0.9725,-0.9782,-0.9782,-0.9783]},{"header":{"parameterUnit":"m.s-1","parameterCategory":1,"la1":30.2991,"la2":30.254,"lo1":-89.0895,"lo2":-89.0444,"dy":0.0017,"dx":0.0017,"nx":28,"ny":28,"refTime":"2024-08-27T03:00:00:Z","depth":0,"parameterNumber":3,"parameterNumberName":"V-component_of_WINDS"},"data":[0,0,0,0,0,0,0,0,0,0,0,0,0,0,0,0,0,0,0,0,0,0,0,0,0,0,0,0,0,0,0,0,0,0,0,0,0,0,0,0,0,0,0,0,0,0,0,0,0,0,0,0,0,0,0,0,0,0,2.502,2.502,0,2.5043,2.5043,2.5044,2.5066,2.5067,2.5067,2.5067,2.5089,2.509,2.509,0,0,0,0,0,0,0,0,0,0,0,0,0,2.4994,2.4994,2.502,2.502,2.5021,2.5043,2.5043,2.5044,2.5066,2.5067,2.5067,2.5067,2.5089,2.509,2.509,0,0,0,0,0,0,0,0,0,0,0,0,0,2.501,2.4995,2.502,2.5035,2.5036,2.5043,2.5043,2.5044,2.5066,2.5067,2.5067,2.5068,2.5089,2.509,2.509,2.5084,0,0,2.5091,2.5092,0,0,0,0,0,0,0,0,2.5009,2.5011,2.5032,2.5034,2.5035,2.5052,2.5042,2.5057,2.5066,2.5055,2.5067,2.5068,2.5077,2.5078,2.5081,2.5085,2.5086,2.5092,2.5092,2.5092,2.5092,0,0,0,0,0,0,0,2.5008,2.501,2.5029,2.5032,2.5034,2.504,2.5042,2.5045,2.5063,2.5056,2.5058,2.506,2.5078,2.5081,2.5082,2.5086,2.5091,2.5092,2.5092,2.5092,2.5085,2.5084,0,0,0,0,0,0,2.5005,2.5009,2.5028,2.503,2.5023,2.504,2.5043,2.5046,2.5063,2.5066,2.506,2.5061,2.508,2.5082,2.5083,2.5076,2.5092,2.5092,2.5093,2.5085,2.5084,2.5084,0,0,0,0,0,0,2.5004,2.5006,2.5027,2.502,2.5023,2.504,2.5044,2.5047,2.505,2.5066,2.5069,2.506,2.508,2.5082,2.5083,2.5077,2.5093,2.5093,2.5086,2.5085,2.5084,2.5062,0,0,0,0,0,0,2.5003,2.5006,2.5004,2.502,2.5023,2.5028,2.5043,2.5047,2.5051,2.5053,2.5067,2.507,2.5081,2.5082,2.5084,2.5078,2.5093,2.5086,2.5085,2.5084,2.5064,2.5061,2.5059,0,0,0,0,0,2.5002,2.4997,2.5004,2.5006,2.5021,2.5027,2.5029,2.5043,2.505,2.5048,2.5058,2.5069,2.5078,2.5082,2.5084,2.5078,2.5087,2.5086,2.5084,2.5065,2.5062,2.5059,0,0,0,0,0,0,2.498,2.4999,2.5007,2.5007,2.5015,2.5031,2.5029,2.5039,2.5045,2.5047,2.5063,2.5066,2.5065,2.5072,2.5077,2.5073,2.5084,2.5083,2.5068,2.5065,2.5063,2.5061,2.5094,0,0,0,0,0,2.4975,2.4979,2.4995,2.4993,2.4997,2.5012,2.5015,2.5025,2.5034,2.5038,2.5048,2.5056,2.5061,2.5064,2.5069,2.5065,2.5068,2.5062,2.5059,2.5057,2.5056,2.5054,2.5051,2.508,2.508,2.508,0,0,2.4964,2.4976,2.4977,2.4989,2.4997,2.5,2.5015,2.5018,2.502,2.5038,2.504,2.5048,2.5058,2.5056,2.5056,2.5062,2.5049,2.5056,2.5054,2.5054,2.5053,2.505,2.5047,2.508,2.508,2.508,0,0,2.4947,2.4956,2.4955,2.4963,2.4974,2.4984,2.4984,2.4999,2.5004,2.5006,2.502,2.5023,2.503,2.5037,2.5041,2.5026,2.5035,2.5027,2.5013,2.5011,2.5009,2.5007,2.5001,2.4998,2.5026,2.5026,2.5026,0,2.4932,2.4938,2.4953,2.4955,2.4959,2.4977,2.4975,2.4982,2.4994,2.4997,2.5003,2.5013,2.5021,2.5021,2.5017,2.502,2.502,2.5025,2.5008,2.5006,2.5005,2.4999,2.4997,2.5025,2.5025,2.5025,2.5025,0,2.4919,2.4923,2.492,2.4932,2.4937,2.4937,2.4951,2.4954,2.4963,2.4972,2.4974,2.4984,2.4991,2.4992,2.5001,2.4993,2.4996,2.5005,2.5016,2.5,2.4995,2.4993,2.5023,2.5023,2.5024,2.5024,0,0,2.4888,2.4908,2.4907,2.4912,2.4926,2.4929,2.493,2.4937,2.4939,2.4947,2.4947,2.4953,2.4961,2.4966,2.4976,2.4974,2.496,2.4983,2.4984,2.4978,2.4951,2.4944,2.4941,2.4967,2.4967,2.4967,2.495,0,2.4872,2.4875,2.4889,2.4887,2.489,2.4906,2.4907,2.4915,2.4923,2.4927,2.4936,2.494,2.4951,2.4954,2.4953,2.4962,2.4955,2.4964,2.4967,2.4967,2.4963,2.4939,2.4931,2.4915,2.4948,2.4948,2.4948,0,2.4855,2.4862,2.486,2.4874,2.4876,2.4876,2.4883,2.4887,2.4896,2.4902,2.4908,2.4919,2.492,2.4931,2.4932,2.4937,2.4939,2.4944,2.4944,2.4944,2.4956,2.4937,2.491,2.4907,2.4945,2.4945,2.4945,0,2.4831,2.484,2.484,2.4845,2.4861,2.486,2.4867,2.4877,2.488,2.4887,2.4889,2.4895,2.4898,2.4903,2.4915,2.4922,2.4914,2.4927,2.4919,2.4919,2.4916,2.4916,2.4888,2.4919,2.4919,2.4919,2.4919,0,2.4812,2.481,2.483,2.483,2.4828,2.4844,2.4842,2.485,2.4858,2.486,2.4874,2.4875,2.4892,2.4894,2.4904,2.4903,2.4905,2.4909,2.4911,2.4907,2.4907,2.4908,2.491,2.4918,2.4918,2.4918,2.4919,0,2.4785,2.4799,2.48,2.4815,2.4818,2.4816,2.4829,2.4829,2.4839,2.484,2.4842,2.4856,2.486,2.4873,2.488,2.4886,2.4882,2.4887,2.4879,2.488,2.4871,2.4872,2.4843,2.484,2.4873,2.4873,2.4872,0,2.4772,2.4771,2.4786,2.4788,2.4794,2.4797,2.4801,2.4816,2.4819,2.4829,2.4828,2.4833,2.4838,2.4843,2.4854,2.4859,2.4864,2.4853,2.4865,2.486,2.4863,2.4862,2.4862,2.4851,2.485,2.485,2.485,0,2.4746,2.4753,2.4758,2.4764,2.4768,2.4774,2.4781,2.4782,2.4798,2.4801,2.4805,2.4809,2.4816,2.482,2.4827,2.4833,2.4844,2.4846,2.4844,2.484,2.4835,2.4837,2.4871,2.4847,2.4847,2.4847,2.4847,2.4847,2.4726,2.4725,2.4735,2.474,2.4747,2.4753,2.4753,2.4763,2.4767,2.4774,2.4782,2.4785,2.4794,2.4805,2.481,2.4812,2.4818,2.4816,2.4815,2.4814,2.4812,2.4835,2.4813,2.4814,2.4814,2.4814,2.4814,0,2.47,2.4707,2.4712,2.4721,2.4724,2.4734,2.4742,2.4744,2.4746,2.4754,2.4758,2.4763,2.4767,2.4778,2.4784,2.4783,2.4788,2.4784,2.4784,2.4785,2.4807,2.4807,2.478,2.478,2.478,2.478,2.478,2.478,2.4687,2.4687,2.4695,2.4698,2.4705,2.4708,2.4711,2.4717,2.4723,2.4727,2.4731,2.4738,2.4747,2.4753,2.4757,2.476,2.4761,2.4755,2.476,2.478,2.4783,2.4786,2.4787,2.4756,2.4756,2.4738,2.4738,2.4738]}]]